Hourly Data Report for October 04, 2016

All times are specified in Local Standard Time (LST). Add 1 hour to adjust for Daylight Saving Time where and when it is observed.

POND INLET A
NUNAVUT

72°41'22.000" N
77°58'08.000" W
61.60 m
2403206
71095
YIO

Download Data

Hourly Data (October 2016)
Hourly Data Report for October 4, 2016
Temp Definition
°C
Dew Point Temp Definition
°C
Rel Hum Definition
%
Wind Dir Definition
10's deg

Wind Spd Definition
km/h
Visibility Definition
km
Stn Press Definition
kPa
Hmdx Definition


Wind Chill Definition


Weather Definition


TIME
00:00 Legend Double Dagger -4.2 -7.0 81 13 5 16.1 99.53   -6 LegendNANA
01:00 Legend Double Dagger -5.5 -7.3 87 13 9 16.1 99.53   -10 Snow
02:00 Legend Double Dagger -4.8 -6.9 85 9 8 16.1 99.54   -8 Snow
03:00 Legend Double Dagger -4.6 -7.2 82 4 4 16.1 99.51   -6 LegendNANA
04:00 Legend Double Dagger -3.9 -6.7 81 6 15 16.1 99.49   -9 LegendNANA
05:00 Legend Double Dagger -3.7 -6.7 80 6 17 16.1 99.48   -9 LegendNANA
06:00 Legend Double Dagger -4.2 -8.3 73 7 9 16.1 99.47   -8 LegendNANA
07:00 Legend Double Dagger -4.6 -9.0 72 8 8 16.1 99.47   -8 LegendNANA
08:00 Legend Double Dagger -3.4 -8.5 68 6 9 16.1 99.46   -7 LegendNANA
09:00 Legend Double Dagger -3.4 -8.5 68 7 8 16.1 99.47   -7 LegendNANA
10:00 Legend Double Dagger -2.7 -8.0 67 4 8 16.1 99.46   -6 LegendNANA
11:00 Legend Double Dagger -3.9 -8.4 71 6 8 16.1 99.46   -7 LegendNANA
12:00 Legend Double Dagger -4.5 -7.6 79 11 8 16.1 99.43   -8 LegendNANA
13:00 Legend Double Dagger -4.2 -8.3 73 9 4 16.1 99.44   -6 LegendNANA
14:00 Legend Double Dagger -4.4 -7.8 77 15 8 16.1 99.45   -8 LegendNANA
15:00 Legend Double Dagger -4.0 -7.4 77 16 8 16.1 99.48   -7 LegendNANA
16:00 Legend Double Dagger -3.4 -7.2 75 10 5 16.1 99.53   -5 LegendNANA
17:00 Legend Double Dagger -2.6 -5.9 78 9 8 16.1 99.54   -6 LegendNANA
18:00 Legend Double Dagger -3.1 -6.6 77 6 8 16.1 99.58   -6 LegendNANA
19:00 Legend Double Dagger -2.8 -6.5 76 7 11 16.1 99.61   -7 LegendNANA
20:00 Legend Double Dagger -3.3 -7.3 74 11 15 16.1 99.66   -8 LegendNANA
21:00 Legend Double Dagger -3.1 -7.5 72 7 15 16.1 99.71   -8 LegendNANA
22:00 Legend Double Dagger -5.4 -9.4 74 10 9 16.1 99.76   -9 LegendNANA
23:00 Legend Double Dagger -6.0 -9.7 75 13 15 16.1 99.80   -12 LegendNANA

Notes on Data Quality.

Legend

  • E = Estimated
  • M = Missing
  • NA = Not Available
  • ‡ = Partner data that is not subject to review by the National Climate Archives
Date modified: